Погода в Новосветловке

Украина / Луганская область     48°29′31″N   39°30′21″E
темп.,
°C
ветер,
м/с
пор.,
м/с
влажн.,
%
обл.,
%
осадки,
мм/ч
давл.,
гПа
погр.,
м
5 марта, пт
пт523:00+3юз9187593 0.0 1012659
02:00+3юз9188086 0.0 1012600
05:00+3зюз8148689 0.0 1011665
08:00+4зюз7138694 0.0 1011649
11:00+5зюз71180100 0.0 1012906
14:00+4зюз61096100 0.6 1013620
17:00+4з2497100 1.1 1013163
20:00+4з0198100 3.9 101423
6 марта, сб
сб623:00+4ююз1398100 2.3 101396
02:00+3вюв1299100 7.1 101285
05:00+3с1299100 4.1 101083
08:00+1ссв3598100 6.2 1010181
11:00+1с71093100 0.6 1011646
14:00+1ссз71084100 1.1 1013908
17:000сз81170100 0.4 10161168
20:00−3сз7126467 0.4 10191231
7 марта, вс
вс723:00−3сз711630 0.0 10211197
02:00−3сз710600 0.0 10231113
05:00−3зсз58630 0.0 1024977
08:00−2з57560 0.0 1024828
11:00+1з69470 0.0 10221497
14:00+2зюз811462 0.0 10201620
17:000зюз6135545 0.0 1018646
20:00−1зюз7155252 0.0 1017771
8 марта, пн
пн823:00−1зюз7165410 0.0 1016687
02:00−1зюз815595 0.0 1014687
05:00−1юз8156511 0.0 1013689
08:00+1зюз9156241 0.0 10131376
11:00+4з101456100 0.0 10131516
14:00+4з81261100 0.0 10131487
17:00+1зсз4975100 0.0 1013380
20:00−1з238294 0.0 101556
9 марта, вт
вт923:00−1ююз3482100 0.0 101589
02:00−1юз2490100 0.0 1014168
05:00−1юз2292100 0.0 101354
08:000зюз3587100 0.3 1013502
11:00+2зюз6894100 0.7 1013517
14:00+1ссз9108097 1.8 1014986
17:00−1сз597683 0.3 1015462
20:00−3с388169 0.4 1018499